Wind_Speed
45 46 45 43 43 40 41 41 41 41 41 40 36 33 30 35 31 33 32 28 31 33 35 37 36 36 35 35 36 39 41 39 34 33 26 24 26 25 24 27 29 29 29
45 46 47 48 48 45 46 45 44 45 46 46 42 39 40 38 37 37 36 35 34 34 39 41 40 41 42 39 40 40 44 37 31 32 31 29 26 23 27 28 29 28 29
46 45 46 49 48 50 49 50 49 48 48 49 50 48 43 44 42 40 39 42 40 41 38 42 42 44 44 44 41 40 42 41 35 33 28 27 30 29 29 29 30 29 31
51 50 49 49 48 49 51 51 52 51 51 51 51 53 50 47 46 45 43 44 45 45 44 42 43 40 42 40 41 42 35 33 31 31 29 30 31 32 31 31 31 31 30
57 55 53 52 51 50 50 50 54 54 51 51 51 55 54 52 49 48 43 47 47 48 46 46 47 43 42 41 38 35 32 30 28 30 30 31 32 33 32 32 32 31 28
61 60 60 59 57 55 53 52 52 52 52 52 51 52 54 52 52 49 46 47 49 49 50 46 43 42 43 40 33 31 31 31 32 32 30 28 30 31 32 32 32 31 25
61 64 65 65 64 62 59 57 55 53 53 54 53 53 52 53 52 48 46 48 49 47 48 44 44 41 40 36 35 34 35 34 34 34 32 31 31 32 34 33 31 26 21
64 64 65 67 67 66 66 63 61 59 56 56 54 53 52 51 50 47 46 46 45 47 46 42 40 40 39 39 38 38 37 36 36 34 34 33 32 33 34 31 27 22 18
68 67 67 66 66 66 69 67 67 65 62 59 56 55 53 52 51 48 48 47 45 44 42 40 40 40 39 39 39 40 39 36 35 35 35 33 32 32 32 28 25 19 16
71 72 70 70 69 69 68 69 71 71 69 66 62 60 58 56 54 53 51 47 48 47 47 44 41 41 41 42 42 41 39 36 35 35 34 32 31 30 28 24 22 19 16
71 74 75 74 73 72 71 70 69 71 72 72 70 66 64 61 59 57 54 52 50 51 50 48 47 47 46 45 44 43 40 38 36 35 34 32 30 28 24 22 20 18 17
65 68 72 76 77 75 75 74 72 71 71 71 71 72 70 67 65 62 61 59 55 55 55 54 53 52 49 48 46 44 41 38 37 35 33 32 28 26 22 21 20 19 19
60 63 65 69 74 79 79 77 77 75 74 73 73 73 72 71 69 68 65 64 62 61 59 58 57 55 50 49 46 43 42 40 38 35 33 31 28 24 21 20 21 21 20
58 61 63 68 70 72 74 78 79 80 80 77 75 73 72 72 72 71 70 67 66 64 62 61 58 55 52 50 46 44 43 40 39 36 34 32 27 24 22 21 23 23 23
59 62 64 66 69 72 74 74 74 74 79 81 80 77 74 71 70 69 69 68 66 63 62 59 58 54 51 48 45 43 42 39 39 38 34 32 28 25 24 23 24 26 26
53 56 60 63 67 71 73 74 74 74 74 78 79 81 78 74 71 69 66 63 62 62 59 57 54 51 50 47 46 44 43 41 40 38 35 33 29 28 26 25 26 28 28
46 49 52 55 57 61 67 71 73 73 72 73 75 76 75 76 76 73 69 67 64 62 60 58 57 54 52 50 48 46 45 44 41 39 37 34 32 30 29 27 28 30 31
39 40 41 44 49 53 57 60 66 70 72 72 73 73 74 76 75 73 72 70 67 65 63 62 60 58 55 54 51 49 47 45 43 41 39 36 35 33 31 31 31 33 34
33 35 36 36 38 43 48 52 56 62 66 71 72 73 74 73 73 74 73 71 69 67 65 64 63 60 57 56 54 51 49 47 45 42 41 39 38 36 34 34 34 35 37
32 31 33 35 34 37 41 46 49 54 59 63 68 72 74 74 73 72 71 71 69 68 67 66 64 62 60 58 56 53 51 49 48 45 43 42 40 39 37 37 38 38 40
37 34 33 32 33 32 36 42 46 48 53 58 62 65 70 73 73 73 72 71 69 67 65 65 64 63 63 60 57 55 53 52 51 49 46 44 43 41 41 40 41 42 42
41 39 37 34 33 32 31 34 42 46 48 51 56 60 63 66 70 71 72 71 69 67 66 65 65 65 64 62 60 59 57 56 54 53 50 48 46 45 44 43 44 46 45
44 44 41 40 36 35 33 32 33 41 46 50 51 54 57 61 63 65 68 71 71 71 69 68 67 66 67 65 63 61 60 59 59 56 54 52 50 49 48 47 47 49 50
46 45 46 44 43 40 37 35 33 33 39 48 51 53 55 56 58 60 63 67 69 71 72 72 71 70 69 69 67 65 64 62 61 60 58 56 54 53 52 50 51 51 54
46 46 46 46 47 45 44 41 38 35 35 37 47 51 52 55 55 56 58 61 64 66 68 72 74 76 75 73 72 69 68 66 65 63 61 59 58 56 55 55 54 55 56
53 49 48 48 48 48 48 47 44 41 38 38 38 43 51 52 53 53 55 57 59 61 64 67 70 73 75 76 75 74 72 70 68 65 64 62 60 59 58 58 57 58 59
Wind_Direction
247 250 250 251 248 251 256 261 266 269 271 278 276 277 272 263 275 274 282 291 284 286 290 291 299 302 309 315 317 321 320 321 321 323 327 327 327 325 327 330 331 330 329
249 249 250 251 249 248 251 253 261 259 264 274 272 274 273 273 273 280 279 269 276 292 277 285 289 294 299 303 302 304 310 319 322 324 325 325 327 331 328 329 328 332 333
247 249 250 252 252 249 251 250 257 261 264 267 271 269 276 272 279 281 283 263 281 284 287 279 290 286 300 303 304 304 307 311 314 316 319 323 323 326 323 326 329 335 336
250 248 248 251 252 252 254 255 256 260 261 264 263 268 274 275 274 280 277 280 284 287 287 283 295 297 297 301 301 305 310 309 311 313 315 318 323 320 321 325 329 335 336
251 250 250 248 249 250 250 250 253 257 257 261 264 264 269 273 274 275 277 279 282 284 286 287 287 291 292 297 302 304 306 307 308 310 315 317 322 322 321 328 330 333 335
249 250 250 249 248 248 247 249 249 251 254 256 258 261 264 267 270 271 272 275 276 278 279 283 286 290 291 294 300 301 300 303 306 309 313 313 318 319 323 330 328 329 332
246 248 249 250 250 250 249 247 247 248 250 253 253 255 257 260 264 266 268 271 273 274 277 280 282 285 290 292 295 299 299 302 305 304 309 314 318 322 323 326 324 325 323
244 246 246 248 249 249 250 249 248 246 246 247 249 251 253 256 259 261 264 266 268 269 273 276 279 282 285 288 292 293 297 300 302 304 307 312 317 320 318 321 320 318 313
244 245 245 247 248 248 248 249 249 249 248 248 249 250 250 252 255 258 260 262 264 267 271 271 276 278 281 284 285 289 294 297 299 301 304 309 311 313 314 319 315 310 306
243 244 244 246 247 247 249 249 249 248 249 248 248 249 249 251 251 253 256 260 263 264 268 271 273 276 278 282 285 287 290 293 295 297 301 303 306 308 311 311 308 299 298
248 246 246 246 247 247 248 249 249 249 250 249 249 249 250 251 252 253 256 258 261 263 265 269 271 275 278 281 283 285 287 289 289 293 297 299 299 303 303 301 299 291 287
255 252 252 250 249 249 249 249 250 250 250 250 251 251 251 251 252 254 255 257 259 261 264 267 270 273 275 278 279 280 281 284 285 288 291 294 294 297 295 292 288 283 276
257 256 254 253 252 251 250 250 251 251 251 251 251 251 251 253 255 255 256 258 260 261 264 265 268 270 270 272 273 275 276 278 280 284 286 288 288 289 287 282 280 275 267
260 259 258 256 254 253 253 253 253 251 250 250 251 252 252 253 254 255 256 257 259 261 263 265 267 267 266 268 268 270 272 275 275 278 281 282 281 280 277 275 271 269 263
265 264 262 259 257 255 254 253 252 252 251 250 250 251 251 252 253 254 255 256 258 259 261 262 263 263 261 262 263 264 267 270 271 272 273 273 274 275 269 270 262 263 261
267 267 266 264 261 257 254 253 252 251 250 249 250 250 251 251 252 252 253 253 255 257 258 257 258 258 259 258 259 261 264 266 267 268 267 267 269 268 264 263 257 256 255
270 270 270 268 265 260 255 252 251 250 250 249 248 249 249 249 250 251 252 252 254 255 255 256 257 257 257 257 257 258 260 262 261 261 261 263 264 264 262 257 254 251 252
277 277 273 267 263 260 258 254 249 249 248 249 248 248 247 247 248 249 250 251 252 253 255 254 255 255 255 255 255 256 257 257 256 256 257 259 261 260 257 254 250 248 248
286 285 281 275 269 260 256 255 253 248 246 246 247 247 247 247 247 246 247 249 249 250 250 251 251 252 253 253 253 252 252 253 252 252 254 255 258 258 255 251 247 247 246
291 294 290 287 281 267 261 256 253 252 250 248 247 247 247 247 246 246 246 246 247 248 249 249 248 249 249 249 250 250 248 248 247 248 250 252 254 255 252 249 247 245 245
287 289 292 293 288 282 266 259 256 252 252 251 249 249 248 247 247 247 246 246 245 245 245 246 247 247 248 247 247 245 245 244 245 246 248 249 250 252 250 248 245 244 244
287 286 286 289 292 287 283 269 259 257 254 253 252 250 249 249 249 249 249 249 248 247 247 246 246 246 247 247 246 245 244 242 242 243 245 247 248 249 249 247 244 242 243
284 283 283 283 285 288 287 283 274 260 255 254 253 252 251 250 250 249 249 249 248 247 247 246 246 247 248 247 246 246 244 242 243 244 244 245 245 246 248 246 244 241 242
283 283 281 280 279 280 283 285 282 280 266 256 253 252 252 251 251 249 248 248 247 246 245 245 245 246 247 248 248 248 246 244 245 247 247 246 246 246 246 246 244 241 241
285 282 279 278 277 277 277 278 280 279 280 274 263 257 255 253 252 251 250 249 249 247 246 244 244 244 245 246 246 246 248 248 248 248 247 248 249 249 248 247 245 243 242
285 282 278 275 274 272 272 273 273 274 274 276 276 268 261 258 255 253 251 250 250 249 247 245 244 243 243 243 244 245 246 247 247 247 248 248 249 250 250 248 247 245 244
Height
10966 10968 10969 10972 10974 10975 10975 10975 10975 10976 10978 10979 10981 10983 10986 10986 10988 10986 10986 10987 10986 10985 10985 10984 10983 10982 10982 10979 10978 10976 10974 10974 10973 10972 10969 10967 10966 10963 10960 10958 10955 10953 10950
10959 10961 10964 10965 10968 10971 10972 10973 10972 10973 10975 10974 10976 10978 10979 10980 10981 10982 10982 10983 10983 10982 10982 10981 10980 10979 10979 10978 10977 10977 10974 10970 10968 10966 10965 10965 10963 10960 10958 10954 10953 10949 10946
10952 10954 10956 10958 10961 10963 10966 10968 10969 10969 10969 10970 10970 10973 10974 10975 10975 10976 10976 10978 10978 10979 10980 10978 10977 10976 10974 10973 10973 10971 10971 10969 10967 10965 10963 10961 10959 10956 10955 10952 10949 10943 10941
10944 10946 10949 10951 10953 10955 10958 10961 10962 10964 10965 10966 10967 10966 10967 10969 10970 10971 10971 10971 10972 10972 10972 10973 10971 10970 10971 10969 10968 10968 10966 10965 10963 10961 10960 10958 10955 10954 10951 10948 10944 10940 10937
10935 10938 10941 10944 10945 10948 10951 10953 10956 10957 10959 10959 10960 10962 10961 10962 10963 10966 10965 10966 10965 10966 10965 10967 10967 10966 10966 10965 10965 10963 10962 10961 10959 10958 10956 10954 10951 10949 10948 10942 10940 10937 10934
10927 10929 10932 10935 10937 10939 10942 10945 10947 10949 10950 10952 10953 10955 10955 10956 10956 10958 10959 10961 10961 10960 10961 10960 10960 10960 10960 10960 10960 10959 10959 10957 10956 10954 10953 10951 10948 10945 10943 10937 10937 10934 10931
10918 10920 10922 10925 10928 10930 10933 10935 10937 10940 10942 10943 10945 10946 10947 10948 10948 10950 10951 10953 10954 10954 10954 10954 10954 10955 10954 10954 10954 10954 10954 10952 10951 10950 10949 10945 10943 10940 10938 10934 10933 10931 10930
10907 10909 10911 10914 10916 10919 10922 10925 10927 10930 10933 10935 10936 10938 10939 10940 10941 10942 10943 10944 10946 10948 10948 10948 10948 10949 10950 10949 10949 10949 10948 10947 10946 10944 10942 10940 10938 10935 10935 10932 10931 10930 10929
10895 10898 10900 10903 10905 10908 10911 10913 10916 10919 10922 10925 10927 10929 10930 10931 10933 10934 10936 10937 10939 10940 10942 10943 10943 10943 10944 10944 10944 10944 10943 10942 10940 10939 10937 10935 10934 10933 10931 10928 10928 10927 10927
10882 10885 10887 10890 10893 10895 10899 10901 10904 10906 10910 10913 10916 10919 10921 10922 10923 10925 10926 10928 10930 10932 10934 10935 10936 10937 10938 10939 10938 10938 10937 10936 10935 10934 10932 10931 10930 10929 10927 10926 10925 10925 10925
10871 10872 10874 10877 10880 10883 10886 10888 10891 10893 10896 10900 10903 10906 10909 10912 10914 10916 10918 10920 10922 10924 10925 10927 10928 10930 10931 10931 10931 10931 10930 10930 10929 10928 10927 10926 10925 10924 10923 10922 10922 10922 10922
10857 10860 10861 10864 10867 10870 10872 10875 10878 10880 10883 10886 10889 10894 10897 10900 10903 10906 10907 10910 10913 10915 10917 10918 10920 10922 10923 10923 10924 10924 10924 10924 10923 10922 10922 10921 10920 10919 10918 10918 10918 10918 10919
10844 10846 10848 10851 10853 10855 10858 10860 10863 10867 10870 10874 10877 10880 10884 10887 10891 10894 10897 10899 10902 10905 10907 10909 10911 10913 10914 10915 10916 10917 10917 10917 10917 10916 10916 10915 10914 10913 10913 10914 10914 10915 10915
10832 10833 10835 10836 10839 10840 10843 10846 10849 10852 10856 10859 10863 10867 10871 10875 10878 10881 10885 10887 10890 10893 10895 10898 10900 10903 10905 10906 10907 10908 10908 10909 10910 10909 10909 10909 10909 10908 10908 10909 10910 10911 10911
10819 10819 10820 10821 10823 10824 10826 10829 10832 10835 10840 10844 10849 10853 10858 10862 10865 10868 10871 10875 10878 10881 10884 10887 10889 10892 10894 10896 10898 10899 10899 10900 10902 10902 10902 10902 10903 10903 10904 10904 10905 10906 10907
10807 10806 10804 10805 10806 10807 10809 10812 10815 10819 10823 10827 10832 10838 10844 10847 10851 10855 10858 10862 10865 10869 10872 10875 10878 10881 10883 10886 10888 10889 10890 10892 10893 10894 10894 10895 10896 10897 10898 10898 10899 10901 10902
10796 10794 10792 10791 10789 10789 10791 10794 10798 10803 10807 10811 10815 10821 10826 10830 10835 10839 10844 10848 10852 10856 10859 10862 10865 10869 10872 10874 10877 10879 10881 10882 10884 10885 10886 10887 10888 10890 10891 10892 10893 10894 10896
10786 10783 10781 10778 10777 10776 10776 10779 10781 10787 10791 10795 10798 10804 10808 10813 10819 10824 10828 10833 10837 10841 10845 10849 10852 10856 10860 10862 10865 10868 10870 10872 10874 10875 10877 10878 10879 10881 10882 10884 10885 10887 10889
10776 10773 10771 10768 10765 10764 10764 10765 10768 10770 10774 10777 10783 10787 10791 10797 10801 10806 10812 10817 10821 10826 10830 10834 10838 10842 10846 10849 10853 10856 10858 10861 10863 10865 10867 10868 10870 10871 10873 10875 10877 10879 10881
10768 10765 10762 10759 10756 10755 10754 10755 10756 10758 10761 10764 10767 10771 10775 10779 10785 10790 10796 10801 10806 10811 10815 10819 10823 10827 10831 10835 10839 10843 10845 10848 10851 10853 10855 10857 10859 10861 10863 10865 10867 10869 10872
10760 10758 10755 10752 10750 10748 10746 10745 10746 10748 10750 10752 10754 10757 10760 10764 10769 10774 10779 10784 10790 10796 10801 10805 10809 10813 10817 10820 10825 10828 10833 10836 10839 10840 10843 10845 10848 10851 10852 10855 10857 10859 10862
10751 10749 10747 10745 10742 10741 10738 10736 10736 10738 10739 10741 10743 10745 10748 10751 10755 10761 10766 10772 10778 10783 10788 10793 10796 10799 10803 10806 10811 10815 10818 10822 10825 10826 10830 10833 10836 10839 10841 10844 10846 10849 10851
10742 10740 10738 10736 10735 10732 10731 10729 10727 10727 10728 10729 10731 10733 10735 10738 10742 10747 10751 10756 10762 10768 10774 10779 10783 10787 10790 10793 10798 10801 10805 10809 10811 10815 10817 10820 10823 10826 10829 10832 10835 10837 10840
10731 10730 10728 10727 10725 10724 10722 10721 10720 10719 10718 10717 10718 10720 10722 10725 10728 10732 10736 10738 10743 10748 10755 10761 10767 10771 10775 10780 10785 10788 10792 10795 10799 10803 10806 10809 10812 10814 10817 10819 10822 10825 10828
10722 10719 10717 10716 10715 10714 10712 10712 10711 10710 10708 10707 10708 10708 10710 10711 10715 10718 10721 10724 10728 10732 10737 10742 10747 10753 10758 10763 10768 10773 10777 10782 10786 10790 10793 10797 10799 10803 10805 10808 10810 10812 10815
10708 10708 10706 10704 10702 10702 10701 10701 10701 10701 10700 10698 10697 10697 10698 10699 10701 10704 10706 10709 10712 10716 10720 10724 10729 10733 10739 10744 10750 10755 10760 10766 10770 10776 10779 10784 10787 10790 10793 10795 10797 10799 10801